#timestamp,LO_Frequency,Hit,StdDev 
1636516815.3,286046998.7,N
1636516835.1,286047000.7,N
1636516855.9,286046998.3,N
1636516875.7,286046998.5,N
1636516895.6,286046999.4,N
1636516915.4,286046999.4,N
1636516935.2,286046996.9,Y
1636516955.1,286046998.9,P
1636516956.0,286046998.9,P
1636516975.8,286046996.5,P
1636516995.7,286046999.0,N
1636517015.5,286046998.8,N
1636517035.3,286046998.5,N
1636517055.2,286046999.4,N
1636517075.0,286046999.1,N
1636517075.9,286046999.1,N
1636517095.8,286046999.2,N
1636517115.6,286046998.4,N
1636517135.4,286046998.8,N
1636517155.3,286047000.4,N
1636517175.1,286047000.7,N
1636517195.9,286047000.1,N
1636517215.7,286046998.1,N
1636517235.5,286046998.2,N
1636517255.4,286046998.6,N
1636517275.2,286046998.7,N
1636517295.0,286046998.7,N
1636517295.9,286046998.7,N
1636517315.8,286046999.0,N
1636517335.6,286046996.7,Y
1636517355.5,286046998.7,P
1636517375.3,286046998.6,P
1636517395.1,286046999.1,P
1636517415.9,286046998.6,Y
1636517435.7,286047000.0,P
1636517455.6,286046999.7,N
1636517475.4,286047002.8,P
1636517495.2,286047000.4,N
1636517515.1,286047000.7,N
1636517516.0,286047000.7,N
1636517535.8,286046998.1,N
1636517555.7,286046998.6,N
1636517575.5,286047001.1,N
1636517595.3,286047001.0,N
1636517615.2,286047000.1,N
1636517635.0,286046999.7,N
1636517635.9,286046999.7,N
1636517655.7,286047000.2,N
1636517675.6,286047000.6,N
1636517695.4,286046999.9,N
1636517715.3,286046999.8,N
1636517735.1,286046999.9,N
1636517736.0,286046999.9,N
1636517755.8,286046998.4,N
1636517775.7,286046998.4,N
1636517795.5,286046999.4,N
1636517815.4,286046998.4,N
1636517835.2,286046999.1,N
1636517855.0,286046996.7,Y
1636517855.9,286046996.7,P
1636517875.8,286046996.9,N
1636517895.6,286046996.5,N
1636517915.4,286046998.4,N
1636517935.3,286047001.2,N
1636517955.1,286046998.7,N
1636517975.9,286047001.1,N
1636517995.7,286047001.0,N
1636518015.5,286047001.2,N
1636518035.4,286046999.8,N
1636518055.2,286047000.1,N
1636518075.0,286047001.1,N
1636518075.9,286047001.1,N
1636518095.8,286047000.1,N
1636518115.6,286047000.2,N
1636518135.5,286046999.7,N
1636518155.3,286047001.0,N
1636518175.1,286047001.2,N
1636518195.9,286046998.3,N
1636518215.7,286046996.7,N
1636518235.5,286046997.2,N
1636518255.4,286046997.3,N
1636518275.2,286046997.2,N
1636518295.1,286046999.3,N
1636518296.0,286046999.3,N
1636518315.8,286046998.7,N
1636518335.6,286046998.8,N
1636518355.5,286046998.5,N
1636518375.3,286046998.7,N
1636518395.2,286046999.1,N
1636518415.9,286046997.0,N
1636518435.8,286046997.2,N
1636518455.7,286046996.7,N
1636518475.5,286046997.0,N
1636518495.3,286046997.0,N
1636518515.2,286046997.2,N
1636518535.0,286046999.3,N
1636518535.9,286046999.3,N
1636518555.8,286046999.2,N
1636518575.6,286046999.4,N
1636518595.4,286047001.1,N
1636518615.3,286046998.6,N
1636518635.1,286047001.2,N
1636518655.9,286046998.6,N
1636518675.7,286046998.3,N
1636518695.5,286046999.0,N
1636518715.4,286046996.6,N
1636518735.2,286046999.4,N
1636518755.0,286046998.9,N
1636518755.9,286046998.9,N
1636518775.8,286046996.5,N
1636518795.6,286046996.5,N
1636518815.5,286046999.5,N
1636518835.3,286046999.3,N
1636518855.1,286046998.8,N
1636518875.9,286046998.1,N
1636518895.7,286047000.7,N
1636518915.5,286047001.0,N
1636518935.4,286046999.9,N
1636518955.2,286047000.0,N
1636518975.1,286047000.4,N
1636518976.0,286047000.4,N
1636518995.8,286046999.7,N
1636519015.6,286047000.4,N
1636519035.5,286047000.5,N
1636519055.3,286046999.8,N
1636519075.1,286047002.2,N
1636519095.9,286046999.7,N
1636519115.7,286047002.5,N
1636519135.6,286047000.2,N
1636519155.4,286047000.8,N
1636519175.2,286047000.1,N
1636519195.1,286047002.4,N
1636519196.0,286047002.4,N
1636519215.8,286047002.6,N
1636519235.7,286047000.2,N
1636519255.5,286047000.4,N
1636519275.3,286047000.1,N
1636519295.2,286047000.1,N
1636519315.0,286047000.0,N
1636519315.9,286047000.0,N
1636519335.7,286047002.4,N
1636519355.6,286047000.5,N
1636519375.4,286047000.3,N
1636519395.3,286047000.4,N
1636519415.1,286047000.2,N
1636519416.0,286047000.2,N
1636519435.8,286047000.6,N
1636519455.7,286047000.7,N
1636519475.5,286047000.6,N
1636519495.3,286047000.3,N
1636519515.2,286047000.4,N
1636519535.0,286046998.1,N
1636519535.9,286046998.1,N
1636519555.8,286047000.3,N
1636519575.6,286047002.3,N
1636519595.4,286047002.7,N
1636519615.3,286047002.6,N
1636519635.1,286047001.7,N
1636519655.8,286047001.5,N
1636519675.7,286047001.7,N
1636519695.5,286047001.6,N
1636519715.4,286047001.8,N
1636519735.2,286047002.4,N
1636519755.0,286047002.2,N
1636519755.9,286047002.2,N
1636519775.8,286047002.1,N
1636519795.6,286047002.0,N
1636519815.4,286047002.4,N
1636519835.3,286047001.5,N
1636519855.1,286047001.5,N
1636519875.9,286047004.3,Y
1636519895.7,286047002.5,P
1636519915.5,286046999.7,N
1636519935.4,286047002.4,N
1636519955.2,286047001.9,N
1636519975.0,286047004.1,Y
1636519976.0,286047004.1,P
1636519995.8,286047001.6,N
1636520015.6,286047001.5,N
1636520035.5,286047002.5,N
1636520055.3,286047002.3,N
1636520075.1,286047002.5,N
1636520095.9,286047002.2,N
1636520115.7,286047000.0,N
1636520135.5,286047000.3,N
1636520155.4,286047002.8,N
1636520175.2,286046999.7,N
1636520195.1,286046999.8,N
1636520196.0,286046999.8,N
1636520215.8,286047000.1,N
1636520235.6,286047000.2,N
1636520255.5,286047000.7,N
1636520275.3,286047000.3,N
1636520295.1,286047000.5,N
1636520315.9,286047001.0,N
1636520335.7,286047000.3,N
1636520355.6,286047001.0,N
1636520375.4,286047001.2,N
1636520395.2,286047000.4,N
